Simultaneous Nadir Overpasses (SNOs) Predictions

Prediction of SNOs between GOES-17 and NOAA-20 Satellite Orbit:

Table of predicted SNOs for the next 14.0 days since TLE Epoch: 5/30/2025
Index Date Time (GOES-17) GOES-17 Lat,Lon NOAA-20 Lat,Lon Distance(km) Time Diff (sec)
1 05/31/2025 08:37:52 -0.01,-104.40 0.79,-108.06 416.56 80
2 06/01/2025 08:16:27 -0.01,-104.40 -0.20,-103.53 99.47 80
3 06/03/2025 20:22:20 0.01,-104.42 0.04,-104.30 13.52 80
4 06/06/2025 08:25:24 -0.00,-104.41 0.16,-105.03 71.23 80
5 06/07/2025 08:04:01 -0.01,-104.41 -0.89,-100.51 445.20 80
6 06/08/2025 20:25:57 0.00,-104.43 -0.31,-105.81 157.76 80
7 06/09/2025 20:09:52 0.00,-104.43 0.69,-101.28 358.95 80
8 06/11/2025 08:31:42 0.01,-104.42 0.45,-106.56 242.20 80
9 06/12/2025 08:10:17 0.01,-104.42 -0.55,-102.02 274.01 80
